When you browse on this site, cookies collect data to enhance your experience and personalize the content and advertising you see.
Visit our Privacy Policy to learn more. By continuing to use the site, you agree to this use of cookies and data.
  • In Latvia
  • List of Countries
  • For 7 days
  • Water Temperature
  • Satellite Maps
  • Weather Map
  • Weather Widgets
  • user-avatar
    Login

    Hourly Weather Eisenstadt

    Today, 25 June, Tuesday

    Time Temperature Precipitation Wind Pressure Humidity
    00:00 +20°C° 0 mm 1 mps 727 mmHg 84%
    01:00 +18°C° 0 mm 0 mps 728 mmHg 86%
    02:00 +17°C° 0 mm 0 mps 728 mmHg 87%
    03:00 +17°C° 0 mm 0 mps 727 mmHg 87%
    04:00 +17°C° 0 mm 0 mps 727 mmHg 88%
    05:00 +19°C° 0 mm 0 mps 728 mmHg 84%
    06:00 +20°C° 0 mm 0 mps 728 mmHg 80%
    07:00 +22°C° 0 mm 0 mps 728 mmHg 76%
    08:00 +25°C° 0 mm 1 mps 728 mmHg 71%
    09:00 +26°C° 0 mm 2 mps 729 mmHg 67%
    10:00 +27°C° 0 mm 2 mps 729 mmHg 63%
    11:00 +28°C° 0 mm 2 mps 729 mmHg 60%
    12:00 +29°C° 0 mm 2 mps 729 mmHg 58%
    13:00 +29°C° 0 mm 3 mps 729 mmHg 56%
    14:00 +29°C° 0 mm 3 mps 729 mmHg 56%
    15:00 +29°C° 0 mm 2 mps 729 mmHg 57%
    16:00 +29°C° 0 mm 2 mps 728 mmHg 57%
    17:00 +28°C° 0 mm 2 mps 728 mmHg 64%
    18:00 +27°C° 0 mm 2 mps 729 mmHg 71%
    19:00 +26°C° 0 mm 1 mps 729 mmHg 78%
    20:00 +24°C° 0 mm 1 mps 729 mmHg 81%
    21:00 +23°C° 0 mm 1 mps 729 mmHg 85%
    22:00 +22°C° 0 mm 1 mps 729 mmHg 88%
    23:00 +22°C° 0 mm 1 mps 729 mmHg 89%

    Tomorrow, 26 June, Wednesday

    Time Temperature Precipitation Wind Pressure Humidity
    00:00 +21°C° 0 mm 1 mps 729 mmHg 90%
    01:00 +21°C° 0 mm 1 mps 729 mmHg 91%
    02:00 +21°C° 0 mm 1 mps 729 mmHg 92%
    03:00 +21°C° 0 mm 1 mps 729 mmHg 93%
    04:00 +20°C° 0 mm 2 mps 729 mmHg 93%
    05:00 +21°C° 0 mm 2 mps 729 mmHg 87%
    06:00 +24°C° 0 mm 2 mps 729 mmHg 82%
    07:00 +26°C° 0 mm 2 mps 729 mmHg 76%
    08:00 +27°C° 0 mm 2 mps 729 mmHg 69%
    09:00 +28°C° 0 mm 2 mps 730 mmHg 63%
    10:00 +30°C° 0 mm 3 mps 730 mmHg 56%
    11:00 +31°C° 0 mm 3 mps 730 mmHg 54%
    12:00 +31°C° 0 mm 3 mps 730 mmHg 51%
    13:00 +33°C° 0 mm 3 mps 729 mmHg 48%
    14:00 +33°C° 0 mm 3 mps 729 mmHg 49%
    15:00 +33°C° 0 mm 3 mps 729 mmHg 50%
    16:00 +33°C° 0 mm 3 mps 728 mmHg 52%
    17:00 +31°C° 0 mm 3 mps 728 mmHg 60%
    18:00 +29°C° 0 mm 2 mps 728 mmHg 68%
    19:00 +27°C° 0 mm 2 mps 727 mmHg 76%
    20:00 +26°C° 0 mm 2 mps 727 mmHg 78%
    21:00 +25°C° 0 mm 2 mps 728 mmHg 81%
    22:00 +24°C° 0 mm 2 mps 728 mmHg 83%
    23:00 +24°C° 0 mm 2 mps 727 mmHg 82%

    Day after tomorrow, 27 June, Thursday

    Time Temperature Precipitation Wind Pressure Humidity
    00:00 +24°C° 0 mm 2 mps 727 mmHg 81%
    01:00 +24°C° 0 mm 2 mps 727 mmHg 80%
    02:00 +23°C° 0 mm 2 mps 727 mmHg 77%
    03:00 +23°C° 0 mm 1 mps 726 mmHg 74%
    04:00 +23°C° 0 mm 1 mps 726 mmHg 72%
    05:00 +25°C° 0 mm 1 mps 726 mmHg 69%
    06:00 +27°C° 0 mm 1 mps 726 mmHg 66%
    07:00 +28°C° 0 mm 1 mps 726 mmHg 64%
    08:00 +29°C° 0 mm 2 mps 726 mmHg 61%
    09:00 +30°C° 0 mm 3 mps 726 mmHg 58%
    10:00 +32°C° 0 mm 4 mps 726 mmHg 55%
    11:00 +32°C° 0.6 mm 4 mps 726 mmHg 57%
    12:00 +32°C° 0.6 mm 4 mps 726 mmHg 59%
    13:00 +32°C° 0.6 mm 5 mps 726 mmHg 61%
    14:00 +30°C° 0.7 mm 5 mps 725 mmHg 63%
    15:00 +30°C° 0.7 mm 5 mps 725 mmHg 65%
    16:00 +29°C° 0.7 mm 6 mps 725 mmHg 66%
    17:00 +27°C° 0.2 mm 5 mps 725 mmHg 67%
    18:00 +26°C° 0.2 mm 4 mps 725 mmHg 67%
    19:00 +23°C° 0.2 mm 4 mps 725 mmHg 68%
    20:00 +22°C° 0 mm 4 mps 725 mmHg 62%
    21:00 +21°C° 0 mm 4 mps 725 mmHg 56%
    22:00 +20°C° 0 mm 4 mps 726 mmHg 50%
    23:00 +19°C° 0 mm 4 mps 726 mmHg 52%

    28 June, Friday

    Time Temperature Precipitation Wind Pressure Humidity
    00:00 +18°C° 0 mm 4 mps 726 mmHg 55%
    01:00 +17°C° 0 mm 3 mps 726 mmHg 57%
    02:00 +17°C° 0 mm 3 mps 726 mmHg 59%
    03:00 +16°C° 0 mm 3 mps 726 mmHg 61%
    04:00 +14°C° 0 mm 3 mps 725 mmHg 63%
    05:00 +16°C° 0 mm 3 mps 726 mmHg 62%
    06:00 +18°C° 0 mm 4 mps 726 mmHg 61%
    07:00 +19°C° 0 mm 4 mps 726 mmHg 60%
    08:00 +20°C° 0 mm 4 mps 726 mmHg 56%
    09:00 +22°C° 0 mm 4 mps 726 mmHg 52%
    10:00 +23°C° 0 mm 4 mps 726 mmHg 47%
    11:00 +25°C° 0 mm 4 mps 726 mmHg 45%
    12:00 +26°C° 0 mm 5 mps 726 mmHg 43%
    13:00 +27°C° 0 mm 5 mps 726 mmHg 40%
    14:00 +26°C° 0 mm 5 mps 725 mmHg 42%
    15:00 +26°C° 0 mm 5 mps 725 mmHg 44%
    16:00 +26°C° 0 mm 5 mps 725 mmHg 46%
    17:00 +25°C° 0 mm 4 mps 725 mmHg 52%
    18:00 +22°C° 0 mm 4 mps 725 mmHg 59%
    19:00 +20°C° 0 mm 3 mps 725 mmHg 66%
    20:00 +19°C° 0 mm 3 mps 725 mmHg 68%
    21:00 +18°C° 0 mm 3 mps 726 mmHg 70%
    22:00 +17°C° 0 mm 2 mps 726 mmHg 71%
    23:00 +16°C° 0 mm 2 mps 726 mmHg 73%

    29 June, Saturday

    Time Temperature Precipitation Wind Pressure Humidity
    00:00 +16°C° 0 mm 2 mps 726 mmHg 74%
    01:00 +15°C° 0 mm 2 mps 726 mmHg 75%
    02:00 +15°C° 0 mm 2 mps 726 mmHg 77%
    03:00 +15°C° 0 mm 2 mps 726 mmHg 79%
    04:00 +14°C° 0 mm 2 mps 726 mmHg 80%
    05:00 +16°C° 0 mm 3 mps 726 mmHg 74%
    06:00 +17°C° 0 mm 3 mps 726 mmHg 68%
    07:00 +19°C° 0 mm 4 mps 726 mmHg 62%
    08:00 +20°C° 0 mm 4 mps 726 mmHg 57%
    09:00 +21°C° 0 mm 4 mps 727 mmHg 51%
    10:00 +22°C° 0 mm 4 mps 727 mmHg 46%
    11:00 +22°C° 0 mm 4 mps 727 mmHg 44%
    12:00 +23°C° 0 mm 4 mps 726 mmHg 42%
    13:00 +25°C° 0 mm 3 mps 726 mmHg 40%
    14:00 +25°C° 0 mm 3 mps 726 mmHg 42%
    15:00 +25°C° 0 mm 3 mps 726 mmHg 43%
    16:00 +25°C° 0 mm 3 mps 726 mmHg 44%
    17:00 +23°C° 0 mm 2 mps 726 mmHg 52%
    18:00 +21°C° 0 mm 2 mps 726 mmHg 61%
    19:00 +21°C° 0 mm 1 mps 726 mmHg 69%
    20:00 +19°C° 0 mm 1 mps 726 mmHg 70%
    21:00 +18°C° 0 mm 1 mps 726 mmHg 72%
    22:00 +16°C° 0 mm 1 mps 726 mmHg 74%
    23:00 +15°C° 0 mm 1 mps 726 mmHg 74%

    30 June, Sunday

    Time Temperature Precipitation Wind Pressure Humidity
    00:00 +15°C° 0 mm 1 mps 726 mmHg 75%
    01:00 +15°C° 0 mm 1 mps 726 mmHg 76%
    02:00 +15°C° 0 mm 1 mps 726 mmHg 77%
    03:00 +14°C° 0 mm 1 mps 726 mmHg 79%
    04:00 +14°C° 0 mm 1 mps 726 mmHg 80%
    05:00 +16°C° 0 mm 1 mps 726 mmHg 76%
    06:00 +17°C° 0 mm 2 mps 726 mmHg 72%
    07:00 +19°C° 0 mm 2 mps 726 mmHg 67%
    08:00 +21°C° 0 mm 3 mps 726 mmHg 63%
    09:00 +22°C° 0 mm 4 mps 727 mmHg 58%
    10:00 +25°C° 0 mm 4 mps 727 mmHg 54%
    11:00 +26°C° 0 mm 4 mps 726 mmHg 52%
    12:00 +26°C° 0 mm 5 mps 726 mmHg 51%
    13:00 +27°C° 0 mm 5 mps 726 mmHg 49%
    14:00 +27°C° 0 mm 5 mps 725 mmHg 51%
    15:00 +27°C° 0 mm 5 mps 725 mmHg 53%
    16:00 +27°C° 0 mm 5 mps 725 mmHg 54%
    17:00 +26°C° 0 mm 5 mps 725 mmHg 60%
    18:00 +23°C° 0 mm 4 mps 725 mmHg 66%
    19:00 +22°C° 0 mm 4 mps 724 mmHg 72%
    20:00 +21°C° 0 mm 4 mps 725 mmHg 76%
    21:00 +20°C° 0 mm 4 mps 725 mmHg 79%
    22:00 +19°C° 0 mm 4 mps 725 mmHg 83%
    23:00 +18°C° 0 mm 3 mps 725 mmHg 84%
    Show more